Location: Newark
(50.7500°N, 2.2667°E)
Time: 10:46:21
(UTC+00:00)

Envisat - Visible Passes

Search period start: 14 November 2019 00:00
Search period end: 24 November 2019 00:00
Orbit: 764 x 766 km, 98.1° (Epoch: 14 November)

Date Brightness Start Highest point End Pass type
(mag) Time Alt. Az. Time Alt. Az. Time Alt. Az.
14 Nov 5.7 05:46:11 10° NE 05:50:13 23° E 05:54:12 10° SE visible
14 Nov 3.2 17:05:16 10° SE 17:10:08 48° ENE 17:15:02 10° N visible
14 Nov 5.0 18:45:04 10° SSW 18:49:24 28° W 18:53:45 10° NW visible
15 Nov 6.3 05:11:20 10° ENE 05:12:55 11° E 05:14:31 10° ESE visible
15 Nov 3.7 18:07:24 10° S 18:12:22 55° W 18:17:23 10° NNW visible
16 Nov 4.8 06:11:14 10° NNE 06:15:57 36° E 06:20:37 10° SSE visible
16 Nov 2.9 17:30:29 10° SSE 17:35:33 77° ENE 17:40:40 10° NNW visible
16 Nov 5.7 19:11:51 10° SW 19:15:12 17° W 19:18:32 10° NW visible
17 Nov 5.9 05:35:14 10° NE 05:38:48 19° E 05:42:21 10° SE visible
17 Nov 3.4 16:54:13 10° SE 16:58:55 40° ENE 17:03:40 10° N visible
17 Nov 4.7 18:33:26 10° SSW 18:38:02 34° W 18:42:39 10° NNW visible
18 Nov 3.3 17:56:01 10° S 18:01:04 67° WSW 18:06:10 10° NNW visible
18 Nov 6.2 19:40:22 10° W 19:41:06 10° W 19:41:49 10° WNW visible
19 Nov 5.2 06:00:07 10° NNE 06:04:35 30° E 06:09:02 10° SSE visible
19 Nov 3.0 17:19:18 10° SSE 17:24:18 63° ENE 17:29:21 10° N visible
19 Nov 5.4 18:59:57 10° SW 19:03:46 21° W 19:07:38 10° NW visible
20 Nov 6.0 05:24:24 10° NE 05:27:23 15° E 05:30:20 10° ESE visible
20 Nov 3.6 16:43:13 10° SE 16:47:43 33° ENE 16:52:16 10° N visible
20 Nov 4.3 18:21:53 10° SSW 18:26:41 41° W 18:31:30 10° NNW visible
21 Nov 4.2 06:25:19 10° NNE 06:30:16 48° E 06:35:10 10° S visible
21 Nov 3.1 17:44:41 10° SSE 17:49:47 82° WSW 17:54:54 10° NNW visible
21 Nov 6.0 19:27:19 10° WSW 19:29:38 13° W 19:31:57 10° WNW visible
22 Nov 5.5 05:49:02 10° NE 05:53:12 25° E 05:57:20 10° SSE visible
22 Nov 3.1 17:08:09 10° SE 17:13:04 52° ENE 17:18:00 10° N visible
22 Nov 5.1 18:48:11 10° SSW 18:52:23 26° W 18:56:37 10° NW visible
23 Nov 6.2 05:13:51 10° ENE 05:15:56 12° E 05:18:02 10° ESE visible
23 Nov 3.8 16:32:16 10° ESE 16:36:33 28° ENE 16:40:50 10° N visible
23 Nov 3.9 18:10:25 10° S 18:15:21 50° W 18:20:19 10° NNW visible
